CDT,Max TemperatureF,Mean TemperatureF,Min TemperatureF,Max Dew PointF,MeanDew PointF,Min DewpointF,Max Humidity, Mean Humidity, Min Humidity, Max Sea Level PressureIn, Mean Sea Level PressureIn, Min Sea Level PressureIn, Max VisibilityMiles, Mean VisibilityMiles, Min VisibilityMiles, Max Wind SpeedMPH, Mean Wind SpeedMPH, Max Gust SpeedMPH,PrecipitationIn, CloudCover, Events, WindDirDegrees
2013-4-1,69,59,49,54,49,39,100,76,52,30.11,30.01,29.91,10,6,0,13,5,16,0.00,5,Fog,346
2013-4-2,56,49,42,39,30,28,66,51,35,30.25,30.19,30.10,10,10,10,17,9,21,0.00,5,,21
2013-4-3,57,50,42,44,33,25,93,63,32,30.21,30.17,30.13,10,10,7,17,7,22,0.18,7,Rain,57
2013-4-4,47,46,45,45,43,41,93,90,86,30.12,30.03,29.97,10,6,1,22,9,28,0.45,8,Rain,95
2013-4-5,67,56,45,46,42,37,100,67,34,30.12,30.06,30.01,10,8,4,15,6,22,T,4,Rain,347
2013-4-6,74,57,40,45,41,38,93,62,31,30.17,30.10,30.02,10,10,10,14,5,18,0.00,3,,166
2013-4-7,74,61,48,52,47,40,83,62,41,30.14,30.06,30.00,10,10,10,18,7,24,0.00,4,,177
2013-4-8,79,67,55,58,54,49,86,74,61,30.08,30.02,29.97,10,10,10,18,9,23,0.00,3,,167
2013-4-9,83,71,58,62,57,54,87,67,46,30.15,30.05,29.99,10,10,10,18,8,24,0.00,4,,156
2013-4-10,86,73,60,59,57,55,84,60,35,30.06,29.96,29.83,10,10,10,16,9,22,0.00,3,,173
2013-4-11,77,66,54,65,61,53,100,82,64,29.84,29.71,29.60,10,8,0,33,12,40,0.86,7,Fog-Rain-Thunderstorm,192
2013-4-12,66,55,43,52,43,39,100,70,40,29.99,29.89,29.74,10,10,9,16,6,23,T,2,Rain,299
2013-4-13,73,58,43,49,44,42,93,64,35,30.11,30.03,29.99,10,10,10,9,3,12,0.00,2,,338
2013-4-14,64,57,50,55,49,42,86,67,48,29.99,29.93,29.87,10,10,9,28,10,33,0.01,7,Rain,123
2013-4-15,79,66,53,60,57,53,100,75,50,30.05,29.98,29.90,10,10,7,15,8,25,0.00,3,,146
2013-4-16,83,74,64,67,64,59,87,73,58,30.17,30.11,30.04,10,10,8,20,8,24,0.12,5,Rain,147
2013-4-17,87,77,67,67,65,63,90,68,46,30.18,30.08,29.99,10,10,10,16,8,18,0.00,5,,160
2013-4-18,84,76,67,64,61,56,87,64,40,29.99,29.88,29.67,10,10,10,30,16,41,0.19,5,,166
2013-4-19,70,55,40,66,49,34,100,77,54,30.17,29.88,29.68,10,7,1,32,9,47,1.23,7,Rain-Thunderstorm,280
2013-4-20,65,51,37,42,36,32,100,66,31,30.28,30.22,30.17,10,9,0,16,5,23,0.00,0,Fog,36
2013-4-21,70,57,43,42,38,33,76,54,31,30.34,30.27,30.22,10,10,10,16,6,22,0.00,2,,92
2013-4-22,73,61,48,50,45,41,77,58,38,30.28,30.20,30.11,10,10,10,18,8,24,0.00,1,,118
2013-4-23,77,66,54,56,50,43,83,63,43,30.17,30.09,30.01,10,10,10,18,8,25,0.00,4,,153
2013-4-24,66,57,48,61,52,40,100,84,67,30.27,30.10,29.98,10,8,2,21,10,26,0.29,7,Rain,284
2013-4-25,68,56,43,42,37,32,82,55,28,30.38,30.33,30.25,10,10,10,14,7,17,0.00,2,,18
2013-4-26,75,58,41,52,43,39,92,61,29,30.39,30.31,30.23,10,10,7,23,7,31,0.03,5,Rain-Thunderstorm,59
2013-4-27,75,65,55,63,57,52,93,77,61,30.28,30.14,29.99,10,10,4,20,10,23,0.08,8,Rain-Thunderstorm,134
2013-4-28,68,64,59,64,60,57,100,91,81,30.04,29.97,29.92,10,8,1,20,7,29,1.65,8,Rain-Thunderstorm,194
2013-4-29,75,66,57,59,57,53,100,77,53,30.05,30.00,29.94,10,9,4,10,2,13,0.00,5,,194
2013-4-30,80,66,52,59,55,51,100,70,39,30.05,29.99,29.95,10,9,2,12,6,17,0.00,3,,114